Regional Weather Roundup
Issued by NWS

Home | Current Version | Previous Version | Graphics & Text | Print | Product List | Glossary On
Versions: 1 2 3 4 5 6 7 8 9 10 11 12 13 14 15 16 17 18 19 20 21 22 23 24 25 26 27 28 29 30 31 32 33 34 35 36 37 38 39 40 41 42 43 44 45 46 47 48 49 50
000
ASUS43 KIND 030459
RWRIN

WEATHER ROUNDUP FOR INDIANA
NATIONAL WEATHER SERVICE INDIANAPOLIS IN
1200 AM EST SAT DEC 03 2016

NOTE: "FAIR" INDICATES FEW OR NO CLOUDS BELOW 12,000 FEET WITH NO
SIGNIFICANT WEATHER AND/OR OBSTRUCTIONS TO VISIBILITY.

* - STATION DOES NOT REPORT WEATHER SUCH AS PRECIPITATION OR FOG.

+ - STATION NOT QUALITY CONTROLLED BY THE NATIONAL WEATHER SERVICE.
    USE DATA WITH CAUTION...ESPECIALLY DEWPOINT AND RELATIVE
    HUMIDITY OBSERVATIONS.

INZ001>003-010>013-019-020-030600-
NORTHWEST INDIANA

CITY           SKY/WX    TMP DP  RH WIND       PRES   REMARKS
MONTICELLO +   CLOUDY    36  30  79 W5        30.31S

$$

LMZ046-743>745-030600-
SOUTHERN LAKE MICHIGAN

STATION/POSITION TIME  TEMP    WIND        PRES    WAVE
                       AIR SEA DIR/SP/G            HT
                 (UTC) (F)     (DEG/KT/KT) (MB)    (FT)
BURNS HARBOR     0430   39     250/ 12/ 18 1026.4S
MICHIGAN CITY    0430   38     280/  8/ 10   N/A

$$

INZ004-005-014>016-021>024-030600-
NORTH CENTRAL INDIANA

CITY           SKY/WX    TMP DP  RH WIND       PRES   REMARKS
GOSHEN         CLOUDY    36  26  67 W14       30.29R
SOUTH BEND     CLOUDY    35  27  72 W5        30.30  WCI  31

$$

INZ006>009-017-018-025>027-030600-
NORTHEAST INDIANA

CITY           SKY/WX    TMP DP  RH WIND       PRES   REMARKS
ANGOLA *+      CLOUDY    36  28  75 W3        30.26S
FORT WAYNE     CLOUDY    36  30  79 W7        30.30
KENDALLVILLE + CLOUDY    34  28  79 CALM      30.27R

$$

INZ028-029-035-036-043>045-051>053-030600-
WEST CENTRAL INDIANA

CITY           SKY/WX    TMP DP  RH WIND       PRES   REMARKS
CRAWFORDSVL +  CLOUDY    35  34  96 W5        30.33R WCI  31
GREENCASTLE +  CLOUDY    36  36 100 CALM      30.33R
LAFAYETTE      CLOUDY    36  33  89 NW5       30.32
TERRE HAUTE    CLOUDY    39  32  76 W3        30.34S

$$

INZ030>032-037>040-046>048-054>057-064-065-030600-
CENTRAL INDIANA

CITY           SKY/WX    TMP DP  RH WIND       PRES   REMARKS
GREENWOOD *+   CLOUDY    38  35  89 W3        30.33R
INDIANAPOLIS   CLOUDY    37  34  89 W6        30.32R
-EAGLE CREEK   CLOUDY    38  34  85 W3        30.31S
KOKOMO +       CLOUDY    36  33  89 W6        30.31S
SHELBYVILLE    CLOUDY    37  34  89 SW3       30.32R
ZIONSVILLE +   CLOUDY    35  32  88 W3        30.31S

$$

INZ033-034-041-042-049-050-058-059-030600-
EAST CENTRAL INDIANA

CITY           SKY/WX    TMP DP  RH WIND       PRES   REMARKS
MUNCIE         CLOUDY    38  32  79 W7        30.30R

$$

INZ060-061-067>069-081>083-085>088-030600-
SOUTHWEST INDIANA

CITY           SKY/WX    TMP DP  RH WIND       PRES   REMARKS
EVANSVILLE     CLEAR     33  28  81 CALM      30.36S
HUNTINGBURG *+ CLOUDY    39  30  70 NW3       30.35S

$$

INZ062-063-066-070>080-084-089>092-030600-
SOUTH CENTRAL AND SOUTHEAST INDIANA

CITY           SKY/WX    TMP DP  RH WIND       PRES   REMARKS
BLOOMINGTON    CLOUDY    38  30  73 W3        30.34R
MADISON *+     CLOUDY    37  32  81 CALM      30.35R
SEYMOUR +      CLOUDY    41  34  75 W3        30.34R

$$





USA.gov is the U.S. government's official web portal to all federal, state and local government web resources and services.